Voltar ao catálogo

DMSP 5D-2 F13 DEB

AtivoSSO
NORAD 40441·DEBRIS·🇺🇸 United States

Lançado Mar 24, 1995 de Vandenberg Space Force Base

Loading…

Próximas Passagens (próximas 24 horas)

TLE

AtualizadoSource: Space-Track

Época: Sep 14, 2026, 19:45 UTC

1 40441U 95015AT  26257.82346543  .00001067  00000-0  47587-3 0  9998
2 40441  98.8107 283.1280 0020137 342.2958  17.7517 14.24803894596391

Acompanhe DMSP 5D-2 F13 DEB em tempo real com AllMySat

Download on the App Store